Voltar ao catálogo

KUIPER-00178

AtivoComunicaçõesLEO
NORAD 67767·PAYLOAD·🇺🇸 United States

Lançado Feb 12, 2026 de Guiana Space Centre

Loading…

Próximas Passagens (próximas 24 horas)

TLE

AtualizadoSource: CelesTrak SupGP

Época: Sep 14, 2026, 20:10 UTC

1 67767C 26030D   26257.84063657  .00003528  00000+0  46187-3 0  2578
2 67767  51.8987  96.6833 0000708 102.9033  98.1540 14.79926843    12

Acompanhe KUIPER-00178 em tempo real com AllMySat

Download on the App Store